Location: Milton
(43.5183°N, 79.8775°W)
Time: 17:40:08
(UTC+00:00)

EO-79 - Visible Passes

Search period start: 28 March 2023 00:00
Search period end: 07 April 2023 00:00
Orbit: 581 x 596 km, 98.0° (Epoch: 27 March)

Date Brightness Start Highest point End Pass type
(mag) Time Alt. Az. Time Alt. Az. Time Alt. Az.
28 Mar ? 06:58:46 10° NNE 06:58:50 10° NNE 06:58:50 10° NNE visible
28 Mar ? 08:34:41 10° NNW 08:35:21 13° NNW 08:35:21 13° NNW visible
29 Mar ? 07:06:15 10° NNE 07:06:37 12° NNE 07:06:37 12° NNE visible
29 Mar ? 08:42:31 10° NNW 08:43:08 12° NNW 08:43:08 12° NNW visible
30 Mar ? 07:13:44 10° NNE 07:14:23 14° NNE 07:14:23 14° NNE visible
30 Mar ? 08:50:24 10° NNW 08:50:54 12° NNW 08:50:54 12° NNW visible
31 Mar ? 07:21:13 10° NNE 07:22:08 16° NNE 07:22:08 16° NNE visible
31 Mar ? 08:58:23 10° NW 08:58:39 11° NW 08:58:39 11° NW visible
01 Apr ? 07:28:44 10° NNE 07:29:52 18° NNE 07:29:52 18° NNE visible
02 Apr ? 07:36:15 10° NNE 07:37:35 20° NNE 07:37:35 20° NNE visible
03 Apr ? 07:43:46 10° N 07:45:17 22° N 07:45:17 22° N visible
04 Apr ? 07:51:17 10° N 07:52:58 23° N 07:52:58 23° N visible
05 Apr ? 07:58:48 10° N 08:00:38 24° N 08:00:38 24° N visible
06 Apr ? 08:06:21 10° N 08:08:17 25° NNW 08:08:17 25° NNW visible
